Regional Weather Roundup
Issued by NWS Grand Forks, ND

Home | Current Version | Previous Version | Text Only | Print | Product List | Glossary Off
Versions: 1 2 3 4 5 6 7 8 9 10 11 12 13 14 15 16 17 18 19 20 21 22 23 24 25 26 27 28 29 30 31 32 33 34 35 36 37 38 39 40 41 42 43 44 45 46 47 48 49 50

000
ASUS43 KFGF 040110
RWRFGF
PRAIRIE TO PINES  WEATHER ROUNDUP
NATIONAL WEATHER SERVICE EASTERN NORTH DAKOTA/GRAND FORKS ND
800 PM CDT TUE MAY 03 2016

 **SATELLITE DATA USED TO AUGMENT SKY COVER AT AUTOMATED STATIONS**
 *****  WEATHER ACROSS EASTERN NORTH DAKOTA  *****

CITY           SKY/WX    TMP DP  RH WIND       PRES   REMARKS
GRAND FORKS    CLEAR     60  33  36 N20       29.94R
GRAND FRKS AFB CLEAR     60  31  33 NE17G25   29.95R
DEVILS LAKE    CLEAR     61  25  25 N18       30.00R
FARGO          CLEAR     64  26  23 N25G33    29.90R
WAHPETON ARPT  CLEAR     63  21  20 N20G28    29.88R
$$

 ***** WEATHER ACROSS CENTRAL AND WESTERN NORTH DAKOTA  *****

CITY           SKY/WX    TMP DP  RH WIND       PRES   REMARKS
BISMARCK       CLEAR     70  32  24 N14       29.99R
MINOT          CLEAR     73  24  16 N14       30.01S
JAMESTOWN      CLEAR     63  25  23 N20       29.95R
MINOT AFB      CLEAR     69  28  21 N12       30.00S
GARRISON         N/A     71  30  21 NE10G20   30.01R
WILLISTON      SUNNY     77  39  25 NE8       30.03S
DICKINSON      CLEAR     69  39  33 NE12      30.03R
HETTINGER      CLEAR     71  38  29 N13       30.05S
$$

 *****  OTHER AIRPORT OBSERVATIONS IN OUR AREA  *****

CITY           SKY/WX    TMP DP  RH WIND       PRES   REMARKS
WALHALLA       FAIR      57  34  41 N13       30.01R
GRAFTON AIRPOR FAIR      59  32  36 N20G28    29.98R
VALLEY CITY AR FAIR      61  25  25 N18G29    29.97R
CANDO          FAIR      59  27  29 NE13      30.03S
CAVALIER APRT  FAIR      59  32  36 N20G26    29.99R
GWINNER        FAIR      64  27  24 N23G31    29.92R
SHEYENNE NWR     N/A     64  26  24 N14       29.95S
ROLLA          FAIR      57  23  26 N15       30.04R
 ***** THE ABOVE OBSERVATIONS ARE NON NWS ARE NOT QUALITY
       CONTROLLED AND MAY MIS-REPORT RAIN FOR SNOW...
$$

  *****  WEATHER ACROSS NORTHERN MINNESOTA  *****

CITY           SKY/WX    TMP DP  RH WIND       PRES   REMARKS
FLAG ISLAND    CLEAR     54  37  54 N13       29.91S
WARROAD        CLEAR     55  39  54 NE8       29.92R
ROSEAU         CLEAR     59  37  44 N13       29.92S
HALLOCK        CLEAR     57  25  28 N16G23    29.96R
THF RVR FALLS  CLEAR     59  30  33 N20       29.93R
BAUDETTE       CLEAR     56  31  38 N12       29.90R
WASKISH        CLEAR     57  36  44 N10G18    29.89R
CROOKSTON      CLEAR     61  28  29 N18       29.93R
STEPHEN NDAWN    N/A     57  27  30 N15         N/A
GREENBUSH NDAW   N/A     55  37  50 N13         N/A
$$
  *****  WEATHER ACROSS CENTRAL AND WEST MINNESOTA  *****

CITY           SKY/WX    TMP DP  RH WIND       PRES   REMARKS
FOSSTON        CLEAR     61  28  29 N15       29.90R
BEMIDJI        CLEAR     56  30  36 N15G22    29.87R
PARK RAPIDS    CLEAR     60  27  28 N13G22    29.84R
ELBOW LAKE     FAIR      62  31  31 NW22G28   29.85R
WADENA         CLEAR     61  28  29 N13G22    29.82R
DETROIT LAKES  CLEAR     61  30  31 N16G29    29.88R
MOORHEAD       CLEAR     63  25  23 N20G32    29.90R
FERGUS FALLS   CLEAR     63  27  25 N16G30    29.83R
MORRIS MN      CLEAR     64  27  24 N22G31    29.83R
STAPLES        CLEAR     61  21  21 N18G25    29.82R
$$
  *****  WEATHER ELSEWHERE ACROSS MINNESOTA  *****

CITY           SKY/WX    TMP DP  RH WIND       PRES   REMARKS
DULUTH         PTCLDY    58  30  34 N18G26    29.75R
INTRNTL FALLS  PTCLDY    54  32  43 NE13      29.89R
ELY            CLEAR     52  30  43 N5G22     29.82R
CLOQUET        CLEAR     61  25  25 N14G24    29.76R
WHEATON        CLEAR     64  30  27 N20G26    29.89R
BRAINERD       CLEAR     60  27  28 N15G24    29.80R
HIBBING        PTCLDY    55  31  39 N20G29    29.80R
ALEXANDRIA     CLEAR     61  27  27 N16       29.83R
SAINT CLOUD    CLEAR     63  23  21 N15G24    29.76R
MINNEAPOLIS    PTCLDY    67  27  22 N20G29    29.69R
$$

  *****  WEATHER ACROSS SOUTH DAKOTA  *****

CITY           SKY/WX    TMP DP  RH WIND       PRES   REMARKS
SIOUX FALLS    PTCLDY    68  37  32 N21G30    29.82R
BROOKINGS      CLEAR     64  29  26 N17G25    29.85R
WATERTOWN      CLEAR     64  28  25 N18G29    29.87R
HURON          CLEAR     68  28  22 N17G28    29.89R
SISSETON         N/A     64  25  22 NE23G33   29.87R
ABERDEEN       CLEAR     67  28  23 N17       29.92R
MITCHELL       CLEAR     70  42  36 N21       29.87R
PIERRE         CLEAR     71  43  36 N13       29.94R
MOBRIDGE       CLEAR     71  40  32 N16       29.94R
RAPID CITY     CLEAR     69  39  33 N12       30.07S
$$

  *****  SOME WEATHER IN NEARBY STATES *****

CITY           SKY/WX    TMP DP  RH WIND       PRES   REMARKS
GLASGOW MT     SUNNY     77  40  26 VRB5      30.03S
GREAT FALLS MT SUNNY     76  36  23 SE7       30.03F
CHEYENNE WY    CLEAR     61  31  32 N13       30.22S
SCOTTSBLUFF NE PTCLDY    71  38  29 N9        30.10S
OMAHA NE       PTCLDY    68  42  38 NW10      29.88F
DES MOINES IA  MOCLDY    65  42  43 W8        29.83F
DAVENPORT IA   CLOUDY    61  42  49 SW10      29.79F
CHICAGO IL     CLOUDY    62  39  42 SW13      29.76F
EAU CLAIRE WI  PTCLDY    54  49  83 NE5       29.67R
LA CROSSE WI   MOCLDY    67  39  35 SW10      29.62F
$$

  *****  SOME NATIONAL WEATHER *****

CITY           SKY/WX    TMP DP  RH WIND       PRES   REMARKS
LA GUARDIA NY  DRIZZLE   52  52 100 NE7       29.84S FOG
RALEIGH NC     MOCLDY    65  63  93 CALM      29.76R
ATLANTA GA     PTCLDY    68  53  58 NW10      29.85R
NEW ORLEANS LA PTCLDY    72  64  76 NW3       29.92R
OKLAHOMA CITY  PTCLDY    64  50  60 S6        30.01F
ALBUQUERQUE NM PTCLDY    72  23  16 VRB7      30.15S
SALT LAKE CITY MOSUNNY   72  29  20 W9        30.12F
LOS ANGELES CA CLOUDY    61  56  83 W12       29.90F
BOISE ID       SUNNY     79  29  16 SE9       30.01F
SEATTLE WA     CLOUDY    68  52  56 W8        30.04S
$$

*** WEATHER ACROSS MANITOBA...SASKATCHEWAN AND ONTARIO ***
                ***ONTARIO***

CITY           SKY/WX    TMP DP  RH WIND       PRES   REMARKS
GERALDTON      LGT RAIN  39  36  87 NW12G21   29.72R
THUNDER BAY    MOCLDY    48  34  57 N9G17     29.79R
SIOUX LOOKOUT  PTCLDY    48  32  53 N10       29.89R
TORONTO        MOCLDY    48  37  66 SE7       29.80R
BIG TROUT LK   CLOUDY    34  25  69 N14G23    29.97R WCI  24
PICKLE LAKE    PTCLDY    41  28  60 N8        29.86R
DRYDEN         PTCLDY    50  32  50 N12G17    29.90R
KENORA         PTCLDY    54  32  43 N14       29.93R
$$
                *** MANITOBA***

CITY           SKY/WX    TMP DP  RH WIND       PRES   REMARKS
BRANDON        PTCLDY    61  21  21 NE15      30.04S
DAUPHIN        CLEAR     57  27  30 NE9       30.05S
ISLAND LAKE    CLEAR     45  23  42 N9G17     30.06R
PILOT MOUND      N/A     55  28  35 NE12G17     N/A
THE PAS        MOSUNNY   61  27  27 E5        30.03F
THOMPSON       PTCLDY    52  18  25 NE6       30.06F
WINNIPEG       CLEAR     54  34  47 NE14      30.01R
LYNN LAKE      MOSUNNY   55  25  30 SE9       30.01F
CHURCHILL      PTCLDY    25  19  80 N5        30.16F WCI  19
GILLAM         PTCLDY    37  19  48 NE7       30.12R
$$
                ***SASKATCHEWAN***

CITY           SKY/WX    TMP DP  RH WIND       PRES   REMARKS
ESTEVAN        MOSUNNY   73  39  29 NE8       30.03F
KINDERSLEY     SUNNY     82  34  17 S10G21    29.94F
LLOYDMINSTER   MOSUNNY   81  37  21 S8        29.89F
PRINCE ALBERT  PTSUNNY   77  41  27 SE8       29.93F
REGINA         MOSUNNY   75  39  27 E9        30.00F
YORKTON        SUNNY     70  36  28 N3        30.01F
N. BATTLEFORD  SUNNY     82  37  20 SW10      29.92F
LA RONGE       NOT AVBL
SASKATOON      CLOUDY    81  37  21 S8        29.95F
SWIFT CURRENT  SUNNY     77  37  24 W8        29.99F
$$
NOTE: THESE ARE AUTOMATED STATIONS WITH LIMITED QUALITY CONTROL
      "FAIR" INDICATES FEW OR NO CLOUDS BELOW 12,000 FEET WITH NO
      SIGNIFICANT WEATHER AND/OR OBSTRUCTIONS TO VISIBILITY.
      SKY/WX - SKY CONDITION AND SIGNIFICANT WEATHER.
      TMP - AIR TEMPERATURE.    DP   - DEWPOINT TEMPERATURE.
      RH  - RELATIVE HUMIDITY.  PRES - PRESSURE.
      HX  - HEAT INDEX.         WCI  - WIND CHILL INDEX.
$



USA.gov is the U.S. government's official web portal to all federal, state and local government web resources and services.